BVX7126 PHOG-PHKO

Flight info

Callsign BVX7126
Flight time 0h 20m
Altitude 13000
Route ONOHI2 ONOHI KAYAK6
Aircraft B738/M-SDE2E3FGHIRWXY/LB1

Departure

Time 2026-05-05 19:30
Airport Kahului International Airport (PHOG)

Arrival

Time 2026-05-05 19:51
Airport Ellison Onizuka Kona International Airport at Keāhole (PHKO)
Time Latitude Longitude Altitude Speed Heading
2026-05-05 19:08 20.89440 -156.43566 21 ft 0 kts 307°
2026-05-05 19:23 20.89428 -156.43550 31 ft 4 kts 307°
2026-05-05 19:23 20.89412 -156.43527 27 ft 4 kts 306°
2026-05-05 19:24 20.89397 -156.43504 29 ft 4 kts 298°
2026-05-05 19:24 20.89386 -156.43477 30 ft 4 kts 284°
2026-05-05 19:24 20.89384 -156.43450 30 ft 4 kts 249°
2026-05-05 19:24 20.89392 -156.43437 30 ft 1 kts 216°
2026-05-05 19:25 20.89394 -156.43436 30 ft 0 kts 216°
2026-05-05 19:27 20.89366 -156.43457 31 ft 10 kts 215°
2026-05-05 19:27 20.89275 -156.43524 30 ft 21 kts 214°
2026-05-05 19:28 20.89133 -156.43630 31 ft 27 kts 214°
2026-05-05 19:28 20.89020 -156.43711 31 ft 4 kts 195°
2026-05-05 19:28 20.88975 -156.43681 31 ft 13 kts 124°
2026-05-05 19:28 20.88953 -156.43605 31 ft 10 kts 56°
2026-05-05 19:29 20.88996 -156.43570 31 ft 8 kts 34°
2026-05-05 19:29 20.89047 -156.43532 30 ft 21 kts 34°
2026-05-05 19:29 20.89383 -156.43284 32 ft 95 kts 34°
2026-05-05 19:29 20.90110 -156.42748 33 ft 158 kts 33°
2026-05-05 19:30 20.91057 -156.42056 598 ft 171 kts 33°
2026-05-05 19:30 20.92046 -156.41358 1445 ft 170 kts 31°
2026-05-05 19:30 20.93077 -156.40659 2086 ft 186 kts 31°
2026-05-05 19:30 20.94168 -156.39742 2353 ft 218 kts 54°
2026-05-05 19:31 20.94599 -156.38124 2679 ft 238 kts 93°
2026-05-05 19:31 20.94159 -156.36343 2993 ft 260 kts 121°
2026-05-05 19:31 20.93135 -156.34712 3766 ft 266 kts 124°
2026-05-05 19:31 20.92091 -156.33072 4755 ft 267 kts 124°
2026-05-05 19:32 20.91049 -156.31441 5632 ft 271 kts 125°
2026-05-05 19:32 20.89973 -156.29760 6485 ft 276 kts 126°
2026-05-05 19:32 20.88881 -156.28050 7280 ft 281 kts 124°
2026-05-05 19:32 20.88143 -156.26104 8034 ft 287 kts 98°
2026-05-05 19:33 20.87970 -156.23963 8856 ft 290 kts 94°
2026-05-05 19:33 20.87833 -156.21782 9607 ft 297 kts 94°
2026-05-05 19:33 20.87695 -156.19581 10281 ft 304 kts 94°
2026-05-05 19:33 20.87544 -156.17257 10675 ft 321 kts 94°
2026-05-05 19:34 20.87377 -156.14808 11061 ft 337 kts 95°
2026-05-05 19:34 20.87199 -156.12245 11534 ft 348 kts 95°
2026-05-05 19:34 20.87013 -156.09614 12004 ft 360 kts 95°
2026-05-05 19:35 20.85620 -156.04554 13000 ft 360 kts 127°
2026-05-05 19:35 20.83813 -156.02691 13030 ft 365 kts 148°
2026-05-05 19:35 20.81509 -156.01530 13028 ft 368 kts 164°
2026-05-05 19:35 20.78992 -156.01137 13021 ft 364 kts 180°
2026-05-05 19:36 20.76495 -156.01193 13021 ft 363 kts 182°
2026-05-05 19:36 20.73984 -156.01300 13002 ft 356 kts 184°
2026-05-05 19:36 20.71550 -156.01406 13005 ft 344 kts 183°
2026-05-05 19:36 20.69192 -156.01499 12925 ft 335 kts 182°
2026-05-05 19:37 20.66880 -156.01581 12710 ft 328 kts 182°
2026-05-05 19:37 20.64606 -156.01655 12367 ft 325 kts 182°
2026-05-05 19:37 20.62380 -156.01723 12049 ft 322 kts 182°
2026-05-05 19:37 20.60144 -156.01790 11703 ft 321 kts 182°
2026-05-05 19:38 20.57917 -156.01856 11364 ft 319 kts 182°
2026-05-05 19:38 20.55696 -156.01923 11023 ft 318 kts 182°
2026-05-05 19:38 20.53489 -156.01991 10700 ft 316 kts 182°
2026-05-05 19:38 20.51331 -156.02057 10510 ft 309 kts 182°
2026-05-05 19:39 20.49198 -156.02122 10371 ft 302 kts 182°
2026-05-05 19:39 20.47122 -156.02186 10234 ft 294 kts 182°
2026-05-05 19:39 20.45098 -156.02248 10101 ft 287 kts 182°
2026-05-05 19:39 20.43147 -156.02308 9905 ft 282 kts 182°
2026-05-05 19:40 20.41183 -156.02368 9608 ft 282 kts 182°
2026-05-05 19:40 20.39226 -156.02429 9323 ft 280 kts 182°
2026-05-05 19:40 20.37282 -156.02489 9042 ft 279 kts 182°
2026-05-05 19:40 20.35342 -156.02548 8760 ft 278 kts 183°
2026-05-05 19:41 20.33414 -156.02607 8479 ft 276 kts 183°
2026-05-05 19:41 20.31515 -156.02665 8202 ft 275 kts 183°
2026-05-05 19:41 20.29605 -156.02723 7923 ft 274 kts 182°
2026-05-05 19:41 20.27698 -156.02783 7646 ft 273 kts 182°
2026-05-05 19:42 20.25801 -156.02841 7379 ft 272 kts 182°
2026-05-05 19:42 20.23928 -156.02897 7109 ft 271 kts 183°
2026-05-05 19:42 20.22042 -156.02956 6834 ft 271 kts 183°
2026-05-05 19:42 20.20157 -156.03014 6565 ft 270 kts 184°
2026-05-05 19:43 20.18278 -156.03073 6280 ft 270 kts 183°
2026-05-05 19:43 20.16403 -156.03130 5998 ft 269 kts 182°
2026-05-05 19:43 20.14535 -156.03187 5721 ft 268 kts 182°
2026-05-05 19:43 20.12697 -156.03243 5454 ft 267 kts 182°
2026-05-05 19:44 20.10839 -156.03300 5188 ft 266 kts 181°
2026-05-05 19:44 20.08989 -156.03348 4922 ft 265 kts 178°
2026-05-05 19:44 20.07237 -156.02832 4630 ft 263 kts 149°
2026-05-05 19:44 20.05602 -156.01980 4365 ft 261 kts 167°
2026-05-05 19:45 20.03828 -156.01872 4139 ft 258 kts 185°
2026-05-05 19:45 20.02056 -156.02080 3916 ft 251 kts 185°
2026-05-05 19:45 20.00359 -156.02223 3786 ft 238 kts 184°
2026-05-05 19:45 19.98757 -156.02357 3673 ft 223 kts 185°
2026-05-05 19:46 19.97266 -156.02489 3559 ft 214 kts 185°
2026-05-05 19:46 19.95794 -156.02620 3470 ft 210 kts 185°
2026-05-05 19:46 19.94337 -156.02749 3386 ft 209 kts 185°
2026-05-05 19:46 19.92878 -156.02878 3195 ft 213 kts 184°
2026-05-05 19:47 19.91415 -156.03007 3057 ft 212 kts 184°
2026-05-05 19:47 19.89930 -156.03139 2913 ft 217 kts 184°
2026-05-05 19:47 19.88409 -156.03273 2636 ft 218 kts 184°
2026-05-05 19:47 19.86926 -156.03404 2347 ft 214 kts 184°
2026-05-05 19:48 19.85475 -156.03533 2056 ft 204 kts 184°
2026-05-05 19:48 19.84102 -156.03654 1813 ft 191 kts 184°
2026-05-05 19:48 19.82811 -156.03768 1552 ft 181 kts 184°
2026-05-05 19:48 19.81593 -156.03876 1318 ft 169 kts 184°
2026-05-05 19:49 19.80496 -156.03973 1148 ft 152 kts 184°
2026-05-05 19:49 19.79799 -156.04034 982 ft 150 kts 183°
2026-05-05 19:49 19.78416 -156.04156 734 ft 150 kts 185°
2026-05-05 19:49 19.77395 -156.04247 526 ft 148 kts 186°
2026-05-05 19:50 19.76384 -156.04342 323 ft 144 kts 187°
2026-05-05 19:50 19.75379 -156.04429 119 ft 145 kts 188°
2026-05-05 19:50 19.74425 -156.04520 44 ft 119 kts 184°
2026-05-05 19:50 19.73820 -156.04572 44 ft 58 kts 185°
2026-05-05 19:51 19.73649 -156.04583 44 ft 12 kts 167°
2026-05-05 19:51 19.73607 -156.04513 44 ft 12 kts 95°
2026-05-05 19:51 19.73603 -156.04428 44 ft 12 kts 93°
2026-05-05 19:51 19.73580 -156.04349 44 ft 11 kts 141°
2026-05-05 19:52 19.73507 -156.04342 45 ft 6 kts 184°
2026-05-05 19:52 19.73478 -156.04319 46 ft 6 kts 109°
2026-05-05 19:52 19.73473 -156.04277 48 ft 6 kts 95°
2026-05-05 19:52 19.73488 -156.04240 47 ft 6 kts 46°
2026-05-05 19:53 19.73506 -156.04222 46 ft 0 kts 42°